When you browse on this site, cookies collect data to enhance your experience and personalize the content and advertising you see.
Visit our Privacy Policy to learn more. By continuing to use the site, you agree to this use of cookies and data.
  • In Portugal
  • List of Countries
  • For 7 days
  • Water Temperature
  • Satellite Maps
  • Weather Map
  • Weather Widgets
  • user-avatar
    Login

    Hourly Weather Yelsk

    Today, 21 May, Tuesday

    Time Temperature Precipitation Wind Pressure Humidity
    00:00 +19°C° 0.2 mm 5 mps 745 mmHg 71%
    01:00 +19°C° 0.2 mm 5 mps 745 mmHg 72%
    02:00 +17°C° 0.2 mm 5 mps 745 mmHg 72%
    03:00 +17°C° 0.9 mm 5 mps 745 mmHg 76%
    04:00 +16°C° 0.9 mm 5 mps 745 mmHg 79%
    05:00 +15°C° 0.9 mm 4 mps 745 mmHg 82%
    06:00 +16°C° 0 mm 5 mps 745 mmHg 77%
    07:00 +19°C° 0 mm 6 mps 744 mmHg 71%
    08:00 +20°C° 0 mm 7 mps 744 mmHg 66%
    09:00 +20°C° 0.3 mm 6 mps 744 mmHg 70%
    10:00 +20°C° 0.3 mm 6 mps 744 mmHg 74%
    11:00 +19°C° 0.3 mm 6 mps 744 mmHg 78%
    12:00 +20°C° 0.1 mm 6 mps 744 mmHg 78%
    13:00 +20°C° 0.1 mm 6 mps 743 mmHg 77%
    14:00 +20°C° 0.1 mm 7 mps 743 mmHg 76%
    15:00 +20°C° 0.3 mm 6 mps 743 mmHg 77%
    16:00 +20°C° 0.3 mm 6 mps 743 mmHg 77%
    17:00 +20°C° 0.3 mm 6 mps 742 mmHg 77%
    18:00 +19°C° 0.3 mm 5 mps 742 mmHg 81%
    19:00 +18°C° 0.3 mm 4 mps 742 mmHg 85%
    20:00 +17°C° 0.3 mm 3 mps 742 mmHg 89%
    21:00 +17°C° 0 mm 3 mps 742 mmHg 91%
    22:00 +17°C° 0 mm 3 mps 742 mmHg 92%
    23:00 +16°C° 0 mm 3 mps 742 mmHg 93%

    Tomorrow, 22 May, Wednesday

    Time Temperature Precipitation Wind Pressure Humidity
    00:00 +14°C° 0 mm 3 mps 742 mmHg 94%
    01:00 +14°C° 0 mm 3 mps 742 mmHg 95%
    02:00 +14°C° 0 mm 2 mps 742 mmHg 96%
    03:00 +14°C° 0 mm 2 mps 742 mmHg 97%
    04:00 +13°C° 0 mm 2 mps 742 mmHg 97%
    05:00 +13°C° 0 mm 2 mps 742 mmHg 97%
    06:00 +15°C° 0 mm 2 mps 742 mmHg 90%
    07:00 +16°C° 0 mm 2 mps 742 mmHg 83%
    08:00 +18°C° 0 mm 2 mps 743 mmHg 76%
    09:00 +20°C° 0 mm 2 mps 743 mmHg 67%
    10:00 +21°C° 0 mm 2 mps 743 mmHg 58%
    11:00 +22°C° 0 mm 3 mps 742 mmHg 50%
    12:00 +24°C° 0 mm 3 mps 742 mmHg 48%
    13:00 +24°C° 0 mm 3 mps 742 mmHg 47%
    14:00 +25°C° 0 mm 3 mps 742 mmHg 45%
    15:00 +25°C° 0 mm 3 mps 742 mmHg 48%
    16:00 +24°C° 0 mm 3 mps 742 mmHg 51%
    17:00 +24°C° 0 mm 3 mps 741 mmHg 53%
    18:00 +21°C° 0.1 mm 2 mps 742 mmHg 63%
    19:00 +19°C° 0.1 mm 2 mps 742 mmHg 73%
    20:00 +18°C° 0.1 mm 1 mps 742 mmHg 82%
    21:00 +16°C° 0 mm 1 mps 742 mmHg 85%
    22:00 +16°C° 0 mm 2 mps 742 mmHg 88%
    23:00 +15°C° 0 mm 2 mps 742 mmHg 91%

    Day after tomorrow, 23 May, Thursday

    Time Temperature Precipitation Wind Pressure Humidity
    00:00 +15°C° 0 mm 1 mps 742 mmHg 92%
    01:00 +14°C° 0 mm 1 mps 742 mmHg 93%
    02:00 +14°C° 0 mm 1 mps 742 mmHg 94%
    03:00 +14°C° 0 mm 1 mps 742 mmHg 94%
    04:00 +14°C° 0 mm 1 mps 742 mmHg 93%
    05:00 +14°C° 0 mm 1 mps 742 mmHg 93%
    06:00 +16°C° 0 mm 1 mps 742 mmHg 85%
    07:00 +19°C° 0 mm 1 mps 742 mmHg 76%
    08:00 +21°C° 0 mm 1 mps 742 mmHg 68%
    09:00 +22°C° 0 mm 1 mps 742 mmHg 62%
    10:00 +23°C° 0 mm 1 mps 742 mmHg 55%
    11:00 +25°C° 0 mm 1 mps 742 mmHg 49%
    12:00 +25°C° 0.2 mm 2 mps 742 mmHg 50%
    13:00 +25°C° 0.2 mm 2 mps 742 mmHg 50%
    14:00 +25°C° 0.2 mm 3 mps 742 mmHg 51%
    15:00 +25°C° 0.3 mm 3 mps 741 mmHg 54%
    16:00 +24°C° 0.3 mm 2 mps 741 mmHg 58%
    17:00 +24°C° 0.3 mm 2 mps 741 mmHg 61%
    18:00 +22°C° 0.4 mm 1 mps 741 mmHg 68%
    19:00 +20°C° 0.4 mm 1 mps 741 mmHg 75%
    20:00 +16°C° 0.4 mm 0 mps 741 mmHg 82%
    21:00 +16°C° 0.6 mm 0 mps 741 mmHg 85%
    22:00 +16°C° 0.6 mm 1 mps 741 mmHg 87%
    23:00 +16°C° 0.6 mm 1 mps 741 mmHg 89%

    24 May, Friday

    Time Temperature Precipitation Wind Pressure Humidity
    00:00 +15°C° 0 mm 1 mps 741 mmHg 90%
    01:00 +15°C° 0 mm 1 mps 740 mmHg 91%
    02:00 +14°C° 0 mm 1 mps 740 mmHg 93%
    03:00 +14°C° 0 mm 1 mps 740 mmHg 93%
    04:00 +14°C° 0 mm 1 mps 740 mmHg 94%
    05:00 +14°C° 0 mm 1 mps 740 mmHg 94%
    06:00 +16°C° 0 mm 1 mps 740 mmHg 89%
    07:00 +18°C° 0 mm 1 mps 740 mmHg 84%
    08:00 +20°C° 0 mm 1 mps 741 mmHg 78%
    09:00 +20°C° 0.1 mm 2 mps 740 mmHg 73%
    10:00 +21°C° 0.1 mm 3 mps 740 mmHg 68%
    11:00 +22°C° 0.1 mm 4 mps 740 mmHg 63%
    12:00 +22°C° 0.5 mm 3 mps 740 mmHg 64%
    13:00 +22°C° 0.5 mm 3 mps 740 mmHg 64%
    14:00 +22°C° 0.5 mm 3 mps 740 mmHg 65%
    15:00 +22°C° 1.2 mm 3 mps 740 mmHg 69%
    16:00 +21°C° 1.2 mm 3 mps 740 mmHg 73%
    17:00 +20°C° 1.2 mm 3 mps 739 mmHg 78%
    18:00 +19°C° 0.6 mm 3 mps 739 mmHg 82%
    19:00 +18°C° 0.6 mm 3 mps 739 mmHg 87%
    20:00 +16°C° 0.6 mm 3 mps 739 mmHg 92%
    21:00 +16°C° 0 mm 3 mps 739 mmHg 94%
    22:00 +14°C° 0 mm 3 mps 739 mmHg 95%
    23:00 +14°C° 0 mm 3 mps 739 mmHg 97%

    25 May, Saturday

    Time Temperature Precipitation Wind Pressure Humidity
    00:00 +13°C° 0 mm 3 mps 739 mmHg 97%
    01:00 +13°C° 0 mm 3 mps 739 mmHg 98%
    02:00 +13°C° 0 mm 3 mps 739 mmHg 98%
    03:00 +13°C° 0 mm 3 mps 739 mmHg 97%
    04:00 +13°C° 0 mm 3 mps 740 mmHg 97%
    05:00 +13°C° 0 mm 3 mps 740 mmHg 96%
    06:00 +13°C° 0 mm 3 mps 740 mmHg 94%
    07:00 +14°C° 0 mm 3 mps 740 mmHg 93%
    08:00 +14°C° 0 mm 3 mps 740 mmHg 91%
    09:00 +17°C° 0.1 mm 3 mps 740 mmHg 84%
    10:00 +18°C° 0.1 mm 3 mps 740 mmHg 77%
    11:00 +20°C° 0.1 mm 3 mps 740 mmHg 70%
    12:00 +20°C° 0.8 mm 3 mps 740 mmHg 69%
    13:00 +21°C° 0.8 mm 3 mps 740 mmHg 69%
    14:00 +21°C° 0.8 mm 3 mps 740 mmHg 68%
    15:00 +21°C° 0.8 mm 3 mps 740 mmHg 69%
    16:00 +21°C° 0.8 mm 3 mps 740 mmHg 69%
    17:00 +21°C° 0.8 mm 3 mps 740 mmHg 69%
    18:00 +19°C° 0.1 mm 2 mps 740 mmHg 74%
    19:00 +18°C° 0.1 mm 2 mps 740 mmHg 78%
    20:00 +16°C° 0.1 mm 2 mps 740 mmHg 83%
    21:00 +15°C° 0 mm 2 mps 740 mmHg 85%
    22:00 +14°C° 0 mm 2 mps 740 mmHg 87%
    23:00 +14°C° 0 mm 2 mps 740 mmHg 90%

    26 May, Sunday

    Time Temperature Precipitation Wind Pressure Humidity
    00:00 +13°C° 0 mm 2 mps 740 mmHg 90%
    01:00 +12°C° 0 mm 2 mps 740 mmHg 90%
    02:00 +12°C° 0 mm 2 mps 740 mmHg 90%
    03:00 +12°C° 0 mm 2 mps 741 mmHg 91%
    04:00 +12°C° 0 mm 2 mps 741 mmHg 91%
    05:00 +12°C° 0 mm 2 mps 741 mmHg 91%
    06:00 +14°C° 0 mm 2 mps 741 mmHg 85%
    07:00 +16°C° 0 mm 3 mps 742 mmHg 79%
    08:00 +18°C° 0 mm 3 mps 742 mmHg 72%
    09:00 +19°C° 0.2 mm 3 mps 742 mmHg 69%
    10:00 +20°C° 0.2 mm 4 mps 742 mmHg 65%
    11:00 +21°C° 0.2 mm 4 mps 742 mmHg 61%
    12:00 +21°C° 0.6 mm 4 mps 742 mmHg 62%
    13:00 +21°C° 0.6 mm 4 mps 742 mmHg 63%
    14:00 +21°C° 0.6 mm 3 mps 742 mmHg 63%
    15:00 +21°C° 0.4 mm 3 mps 742 mmHg 65%
    16:00 +21°C° 0.4 mm 3 mps 742 mmHg 66%
    17:00 +20°C° 0.4 mm 3 mps 742 mmHg 67%
    18:00 +19°C° 0.1 mm 2 mps 743 mmHg 74%
    19:00 +17°C° 0.1 mm 2 mps 743 mmHg 80%
    20:00 +16°C° 0.1 mm 2 mps 743 mmHg 87%
    21:00 +15°C° 0 mm 2 mps 743 mmHg 88%
    22:00 +14°C° 0 mm 2 mps 744 mmHg 89%
    23:00 +13°C° 0 mm 2 mps 744 mmHg 90%
    Show more